Powrót do katalogu

NINGXIA-1 1

AktywnyNaukaLEO
NORAD 44779·PAYLOAD·🇨🇳 China

Wystrzelony Nov 13, 2019 z Taiyuan Satellite Launch Center

Loading…

Następne Przeloty (najbliższe 24 godziny)

TLE

ŚwieżeSource: Space-Track

Epoka: Sep 14, 2026, 16:17 UTC

1 44779U 19076A   26257.67860544 -.00000010  00000-0  77460-4 0  9996
2 44779  45.0049 139.9017 0011166 221.8561 138.1420 14.02114503350418

Śledź NINGXIA-1 1 w czasie rzeczywistym z AllMySat

Download on the App Store